QPF
0.00 0.00 0.00 0.00 0.00 0.00 0.00 0.00 0.00 0.00 0.00 0.00 0.01 0.01 0.01 0.02 0.04 0.03 0.02 0.05 0.04 0.01 0.00 0.00 0.00 0.00 0.00 0.00 0.01 0.01 0.01 0.01 0.02 0.01 0.00 0.00 0.00 0.00 0.00 0.00 0.00 0.00 0.00
0.00 0.00 0.00 0.00 0.00 0.01 0.01 0.00 0.00 0.00 0.00 0.00 0.00 0.00 0.00 0.00 0.02 0.02 0.01 0.03 0.02 0.03 0.01 0.00 0.00 0.00 0.01 0.01 0.02 0.03 0.02 0.01 0.03 0.02 0.00 0.00 0.00 0.00 0.00 0.00 0.00 0.00 0.00
0.02 0.00 0.00 0.00 0.00 0.00 0.00 0.01 0.01 0.01 0.00 0.00 0.00 0.00 0.00 0.00 0.00 0.00 0.00 0.00 0.00 0.01 0.02 0.02 0.01 0.00 0.00 0.00 0.00 0.00 0.00 0.00 0.01 0.01 0.00 0.00 0.00 0.00 0.01 0.00 0.00 0.00 0.00
0.02 0.01 0.01 0.00 0.00 0.00 0.00 0.00 0.00 0.01 0.01 0.00 0.00 0.00 0.00 0.00 0.00 0.01 0.01 0.01 0.00 0.00 0.00 0.01 0.01 0.01 0.01 0.01 0.01 0.00 0.00 0.01 0.01 0.01 0.00 0.00 0.00 0.00 0.01 0.01 0.00 0.00 0.00
0.01 0.01 0.01 0.01 0.01 0.00 0.00 0.00 0.00 0.00 0.00 0.00 0.00 0.01 0.01 0.01 0.00 0.00 0.00 0.00 0.00 0.00 0.00 0.00 0.00 0.01 0.00 0.01 0.03 0.02 0.03 0.04 0.03 0.03 0.01 0.00 0.00 0.00 0.01 0.01 0.02 0.01 0.01
0.00 0.00 0.00 0.01 0.01 0.01 0.01 0.00 0.00 0.01 0.01 0.00 0.01 0.00 0.01 0.02 0.02 0.01 0.01 0.00 0.00 0.00 0.00 0.00 0.00 0.00 0.00 0.00 0.00 0.00 0.01 0.02 0.01 0.01 0.01 0.01 0.00 0.00 0.00 0.00 0.00 0.01 0.01
0.00 0.01 0.00 0.00 0.00 0.00 0.00 0.00 0.01 0.01 0.01 0.01 0.01 0.02 0.03 0.03 0.06 0.02 0.02 0.01 0.01 0.03 0.03 0.03 0.03 0.05 0.07 0.01 0.02 0.03 0.02 0.03 0.03 0.04 0.02 0.02 0.04 0.04 0.03 0.01 0.00 0.00 0.00
0.00 0.01 0.01 0.01 0.00 0.00 0.00 0.00 0.00 0.00 0.00 0.00 0.00 0.00 0.00 0.01 0.01 0.00 0.00 0.00 0.00 0.01 0.02 0.02 0.02 0.02 0.04 0.05 0.01 0.01 0.01 0.08 0.14 0.09 0.09 0.10 0.11 0.07 0.04 0.04 0.06 0.08 0.11
0.00 0.00 0.00 0.00 0.00 0.00 0.00 0.00 0.00 0.00 0.00 0.00 0.00 0.00 0.00 0.00 0.00 0.00 0.00 0.00 0.00 0.00 0.01 0.00 0.00 0.00 0.03 0.02 0.00 0.00 0.02 0.12 0.15 0.10 0.06 0.08 0.08 0.07 0.06 0.04 0.07 0.21 0.34
0.01 0.00 0.00 0.00 0.00 0.00 0.00 0.00 0.00 0.00 0.00 0.00 0.00 0.00 0.00 0.00 0.00 0.00 0.00 0.00 0.00 0.00 0.00 0.00 0.00 0.00 0.00 0.00 0.00 0.00 0.00 0.04 0.06 0.08 0.09 0.12 0.14 0.14 0.16 0.14 0.13 0.18 0.28
0.01 0.01 0.00 0.00 0.00 0.00 0.00 0.00 0.00 0.00 0.00 0.00 0.00 0.00 0.00 0.00 0.00 0.00 0.00 0.00 0.00 0.00 0.00 0.00 0.00 0.00 0.00 0.00 0.00 0.00 0.00 0.01 0.04 0.02 0.01 0.02 0.03 0.03 0.05 0.07 0.07 0.07 0.09
0.00 0.00 0.00 0.00 0.00 0.00 0.00 0.00 0.00 0.00 0.00 0.00 0.00 0.00 0.00 0.00 0.00 0.00 0.00 0.00 0.00 0.00 0.00 0.00 0.00 0.00 0.00 0.00 0.00 0.00 0.00 0.00 0.00 0.00 0.01 0.01 0.02 0.03 0.02 0.02 0.02 0.02 0.03
0.00 0.00 0.00 0.00 0.00 0.00 0.00 0.00 0.00 0.00 0.00 0.00 0.00 0.00 0.00 0.00 0.00 0.00 0.00 0.00 0.00 0.00 0.00 0.00 0.00 0.00 0.00 0.00 0.00 0.00 0.00 0.00 0.00 0.00 0.00 0.01 0.02 0.02 0.02 0.01 0.01 0.01 0.00
0.00 0.00 0.00 0.00 0.00 0.00 0.00 0.00 0.00 0.00 0.00 0.00 0.00 0.00 0.00 0.00 0.00 0.00 0.00 0.00 0.00 0.00 0.00 0.00 0.00 0.00 0.00 0.00 0.00 0.00 0.00 0.00 0.00 0.00 0.00 0.01 0.00 0.00 0.00 0.00 0.00 0.00 0.00
0.00 0.00 0.00 0.00 0.00 0.00 0.00 0.00 0.00 0.01 0.00 0.00 0.01 0.00 0.00 0.01 0.01 0.00 0.00 0.00 0.00 0.00 0.00 0.00 0.00 0.00 0.00 0.00 0.00 0.00 0.00 0.00 0.00 0.00 0.00 0.00 0.00 0.00 0.00 0.00 0.00 0.00 0.00
0.00 0.00 0.00 0.00 0.00 0.00 0.00 0.00 0.00 0.00 0.00 0.00 0.00 0.00 0.01 0.01 0.00 0.00 0.00 0.00 0.00 0.00 0.00 0.00 0.00 0.00 0.00 0.00 0.00 0.00 0.00 0.00 0.00 0.00 0.00 0.00 0.00 0.00 0.00 0.00 0.00 0.00 0.00
0.00 0.00 0.00 0.00 0.00 0.00 0.00 0.00 0.00 0.00 0.00 0.00 0.00 0.00 0.00 0.00 0.00 0.00 0.00 0.00 0.00 0.00 0.00 0.00 0.00 0.00 0.00 0.00 0.00 0.00 0.00 0.00 0.00 0.00 0.00 0.00 0.00 0.00 0.00 0.00 0.00 0.00 0.00
0.00 0.00 0.00 0.00 0.00 0.00 0.00 0.00 0.00 0.00 0.00 0.00 0.00 0.00 0.00 0.00 0.00 0.00 0.00 0.00 0.00 0.00 0.00 0.00 0.00 0.00 0.00 0.00 0.00 0.00 0.00 0.00 0.00 0.00 0.00 0.00 0.00 0.00 0.00 0.00 0.00 0.00 0.00
0.00 0.00 0.00 0.00 0.00 0.00 0.00 0.00 0.00 0.00 0.00 0.00 0.00 0.00 0.00 0.00 0.00 0.00 0.00 0.00 0.00 0.00 0.00 0.00 0.00 0.00 0.00 0.00 0.00 0.00 0.00 0.00 0.00 0.00 0.00 0.00 0.00 0.00 0.00 0.00 0.00 0.00 0.00
0.00 0.00 0.00 0.00 0.00 0.00 0.00 0.00 0.00 0.00 0.00 0.00 0.00 0.00 0.00 0.00 0.00 0.00 0.00 0.00 0.00 0.00 0.00 0.00 0.00 0.00 0.00 0.00 0.00 0.00 0.00 0.00 0.00 0.00 0.00 0.00 0.00 0.00 0.00 0.00 0.00 0.00 0.00
0.00 0.00 0.00 0.00 0.00 0.00 0.00 0.00 0.00 0.00 0.00 0.00 0.00 0.00 0.00 0.00 0.00 0.00 0.00 0.00 0.00 0.00 0.00 0.00 0.00 0.00 0.00 0.00 0.00 0.00 0.00 0.00 0.00 0.00 0.00 0.00 0.00 0.00 0.00 0.00 0.00 0.00 0.00
0.00 0.00 0.00 0.00 0.00 0.00 0.00 0.00 0.00 0.00 0.00 0.00 0.00 0.00 0.00 0.00 0.00 0.00 0.00 0.00 0.00 0.00 0.00 0.00 0.00 0.00 0.00 0.00 0.00 0.00 0.00 0.00 0.00 0.00 0.00 0.00 0.00 0.00 0.00 0.00 0.00 0.00 0.00
0.00 0.00 0.00 0.00 0.00 0.00 0.00 0.00 0.00 0.00 0.00 0.00 0.00 0.00 0.00 0.00 0.00 0.00 0.00 0.00 0.00 0.00 0.00 0.00 0.00 0.00 0.00 0.00 0.00 0.00 0.00 0.00 0.00 0.00 0.00 0.00 0.00 0.00 0.00 0.00 0.00 0.00 0.00
0.00 0.00 0.00 0.00 0.00 0.00 0.00 0.00 0.00 0.00 0.00 0.00 0.00 0.00 0.00 0.00 0.00 0.00 0.00 0.00 0.00 0.00 0.00 0.00 0.00 0.00 0.00 0.00 0.00 0.00 0.00 0.00 0.00 0.00 0.00 0.00 0.00 0.00 0.00 0.00 0.00 0.00 0.00
0.00 0.00 0.00 0.00 0.00 0.00 0.00 0.00 0.00 0.00 0.00 0.00 0.00 0.00 0.00 0.00 0.00 0.00 0.00 0.00 0.00 0.00 0.00 0.00 0.00 0.00 0.00 0.00 0.00 0.00 0.00 0.00 0.00 0.00 0.00 0.00 0.00 0.00 0.00 0.00 0.00 0.00 0.00
0.00 0.00 0.00 0.00 0.00 0.00 0.00 0.00 0.00 0.00 0.00 0.00 0.00 0.00 0.00 0.00 0.00 0.00 0.00 0.00 0.00 0.00 0.00 0.00 0.00 0.00 0.00 0.00 0.00 0.00 0.00 0.00 0.00 0.00 0.00 0.00 0.00 0.00 0.00 0.00 0.00 0.00 0.00
MSLP
1005.83 1006.29 1006.33 1006.74 1007.42 1008.16 1008.53 1008.96 1009.23 1009.57 1009.92 1010.28 1010.57 1011.20 1011.74 1012.22 1012.70 1013.19 1013.62 1014.18 1014.61 1015.07 1015.48 1015.68 1015.76 1016.22 1016.44 1016.60 1016.69 1016.91 1017.06 1017.33 1017.14 1016.73 1016.78 1016.36 1016.39 1016.12 1015.80 1015.95 1016.07 1016.09 1015.75
1006.01 1006.47 1006.67 1007.00 1007.24 1007.80 1008.34 1008.90 1009.35 1009.59 1009.92 1010.17 1010.50 1010.92 1011.44 1012.03 1012.44 1012.77 1013.28 1013.67 1014.05 1014.48 1014.71 1015.13 1015.10 1015.56 1015.84 1016.18 1016.25 1016.43 1016.61 1016.74 1016.94 1016.24 1016.21 1015.86 1015.72 1015.31 1015.06 1014.80 1014.71 1014.49 1014.37
1006.51 1006.88 1007.25 1007.67 1007.94 1008.19 1008.31 1008.44 1008.86 1009.31 1009.86 1010.22 1010.46 1010.80 1011.22 1011.70 1012.07 1012.34 1012.62 1012.95 1013.30 1013.65 1013.91 1014.20 1014.33 1014.72 1014.89 1015.03 1015.28 1015.41 1015.64 1015.72 1015.82 1015.71 1014.93 1014.46 1013.89 1013.97 1013.71 1013.39 1013.11 1012.96 1012.95
1007.17 1007.59 1008.02 1008.16 1008.34 1008.45 1008.76 1008.89 1008.98 1009.17 1009.41 1009.91 1010.30 1010.66 1011.08 1011.43 1011.66 1011.80 1011.83 1012.00 1012.46 1012.79 1012.93 1013.29 1013.37 1013.51 1013.64 1013.77 1013.94 1014.04 1014.19 1014.28 1014.20 1014.05 1013.35 1012.92 1012.87 1012.59 1012.50 1012.10 1011.62 1011.68 1011.40
1008.61 1008.85 1009.24 1009.38 1009.42 1009.51 1009.61 1009.72 1009.62 1009.59 1009.64 1009.58 1009.93 1010.39 1010.87 1011.90 1013.23 1012.79 1011.79 1012.01 1012.27 1012.23 1012.33 1012.40 1012.40 1012.56 1012.73 1012.89 1012.87 1012.72 1012.93 1012.99 1012.84 1012.65 1012.56 1012.17 1011.84 1011.68 1011.36 1011.24 1010.82 1010.51 1009.96
1009.91 1010.05 1010.24 1010.22 1010.38 1010.67 1010.77 1010.82 1010.82 1010.95 1011.14 1011.30 1011.66 1012.07 1012.69 1013.83 1014.23 1013.85 1013.52 1012.73 1012.39 1012.16 1012.15 1012.04 1012.07 1012.14 1012.18 1012.23 1012.31 1012.38 1012.50 1012.55 1012.31 1012.23 1012.03 1011.81 1011.53 1011.05 1010.83 1010.57 1010.20 1010.13 1009.31
1010.89 1011.20 1011.46 1011.08 1010.97 1011.52 1011.72 1011.76 1011.83 1012.19 1012.57 1012.91 1013.26 1013.63 1014.35 1014.88 1014.83 1014.37 1013.97 1013.45 1013.07 1012.86 1012.81 1012.85 1012.57 1012.44 1012.53 1012.37 1011.95 1012.10 1012.15 1012.10 1012.06 1012.39 1011.86 1011.64 1011.57 1011.64 1011.63 1010.83 1010.49 1010.29 1009.93
1011.95 1012.39 1012.80 1012.01 1011.47 1012.20 1012.45 1012.60 1012.72 1013.27 1013.78 1014.30 1014.64 1014.87 1015.22 1015.78 1015.58 1014.89 1014.09 1013.60 1013.47 1014.24 1014.68 1014.67 1014.47 1014.19 1014.21 1013.88 1013.20 1012.71 1012.31 1013.20 1013.19 1012.95 1013.39 1013.98 1014.29 1013.84 1013.41 1012.60 1012.18 1011.83 1011.91
1013.84 1013.98 1013.25 1011.95 1012.87 1013.83 1013.87 1013.91 1013.87 1014.02 1014.59 1015.12 1015.60 1015.84 1015.84 1016.21 1015.93 1015.11 1013.83 1013.59 1014.63 1015.34 1015.82 1015.93 1015.63 1015.39 1015.16 1014.22 1013.44 1013.30 1013.60 1014.63 1015.01 1015.01 1015.18 1015.40 1015.32 1014.88 1014.16 1012.95 1012.72 1012.60 1012.14
1013.71 1014.10 1013.50 1014.62 1014.41 1014.66 1015.24 1015.11 1015.25 1015.23 1015.47 1015.87 1016.35 1016.66 1016.98 1016.81 1016.59 1015.96 1015.12 1015.26 1015.55 1016.11 1016.74 1016.88 1016.75 1016.32 1015.74 1014.78 1014.11 1013.97 1015.01 1015.90 1015.94 1016.00 1016.07 1016.01 1015.95 1015.88 1015.57 1015.31 1014.81 1013.94 1013.76
1015.44 1016.14 1015.85 1015.78 1015.42 1015.87 1016.10 1016.26 1016.28 1016.05 1016.08 1016.42 1016.94 1017.58 1017.67 1017.97 1017.68 1017.30 1016.59 1016.24 1016.88 1017.16 1017.40 1017.58 1017.67 1017.37 1016.91 1016.17 1015.63 1015.66 1016.33 1016.93 1017.15 1017.09 1017.18 1017.12 1017.02 1016.80 1016.74 1016.46 1016.26 1015.61 1015.44
1017.12 1017.42 1017.21 1016.71 1016.83 1016.77 1017.04 1017.53 1017.21 1016.68 1016.80 1017.12 1017.60 1018.07 1018.39 1018.61 1018.64 1018.39 1018.11 1017.80 1017.70 1017.82 1018.15 1018.50 1018.77 1018.60 1018.13 1017.66 1017.30 1017.42 1017.36 1017.36 1017.42 1017.33 1017.43 1017.60 1017.69 1017.52 1017.52 1017.56 1017.41 1016.89 1017.38
1017.73 1017.91 1017.73 1018.11 1018.09 1018.15 1018.12 1018.26 1017.62 1017.57 1017.42 1017.84 1018.29 1018.66 1018.84 1019.01 1019.26 1019.48 1019.44 1019.15 1019.03 1019.01 1019.42 1019.61 1019.61 1019.30 1019.09 1018.97 1018.78 1018.42 1018.06 1017.94 1017.83 1017.86 1018.04 1018.21 1018.22 1018.30 1017.94 1017.65 1017.54 1017.40 1017.51
1018.72 1018.91 1019.22 1019.24 1019.46 1019.68 1019.61 1019.32 1019.03 1018.85 1018.95 1019.12 1019.18 1019.32 1019.84 1020.20 1020.18 1019.98 1019.83 1019.80 1019.95 1019.74 1019.98 1020.08 1020.01 1019.82 1019.93 1019.81 1019.57 1019.46 1019.36 1019.40 1019.16 1018.89 1018.87 1019.01 1018.93 1018.67 1018.38 1018.01 1017.58 1017.32 1017.20
1019.66 1019.96 1020.18 1020.36 1020.66 1021.09 1021.27 1021.23 1021.17 1021.18 1020.63 1020.50 1020.82 1020.84 1021.04 1021.19 1021.49 1021.46 1021.03 1020.89 1020.83 1020.88 1020.78 1020.67 1020.28 1020.27 1020.28 1020.37 1020.36 1020.47 1020.69 1020.41 1020.01 1019.83 1019.60 1019.36 1019.30 1019.18 1019.15 1019.01 1018.51 1018.25 1018.07
1020.24 1020.49 1020.86 1020.86 1021.10 1021.41 1022.04 1022.75 1023.16 1023.09 1022.92 1022.45 1022.16 1021.84 1022.11 1022.41 1022.43 1022.22 1022.01 1022.00 1021.89 1021.46 1021.27 1021.22 1021.39 1021.20 1021.11 1021.31 1021.34 1021.34 1021.42 1021.31 1021.09 1020.84 1020.59 1020.39 1020.37 1020.24 1019.84 1019.75 1019.48 1019.26 1019.07
1021.43 1021.36 1021.52 1021.58 1021.73 1022.00 1022.06 1022.25 1023.13 1024.27 1024.49 1024.14 1023.51 1023.24 1023.12 1023.19 1023.06 1022.97 1022.80 1022.74 1022.55 1022.11 1021.92 1021.95 1022.07 1022.25 1022.38 1022.48 1022.34 1022.36 1022.33 1022.46 1022.30 1021.95 1021.76 1021.62 1021.33 1021.00 1020.76 1020.82 1020.33 1020.10 1019.54
1022.52 1022.47 1022.24 1022.42 1022.46 1022.66 1022.85 1023.17 1023.41 1023.61 1023.78 1024.32 1024.96 1024.53 1024.12 1023.90 1023.77 1023.48 1023.17 1022.86 1022.92 1022.90 1022.88 1023.04 1023.21 1023.39 1023.39 1023.33 1023.43 1023.25 1023.33 1023.44 1023.34 1023.11 1022.88 1022.77 1022.42 1022.01 1021.79 1021.46 1021.36 1021.10 1020.47
1022.99 1023.10 1023.25 1023.43 1023.56 1023.55 1023.53 1023.63 1023.78 1024.03 1024.16 1024.32 1024.37 1024.52 1024.89 1024.55 1024.42 1024.42 1024.12 1023.79 1023.83 1023.99 1024.04 1024.27 1024.47 1024.51 1024.48 1024.39 1024.55 1024.55 1024.63 1024.58 1024.49 1024.22 1024.01 1023.67 1023.49 1022.95 1022.72 1022.51 1022.09 1022.09 1021.56
1024.16 1024.30 1023.94 1023.88 1023.93 1023.90 1023.92 1024.03 1024.31 1024.51 1024.70 1025.11 1025.52 1025.60 1025.01 1024.85 1024.79 1025.03 1025.08 1025.08 1025.15 1025.24 1025.38 1025.50 1025.65 1025.67 1025.67 1025.43 1025.42 1025.42 1025.24 1025.40 1025.34 1025.03 1024.87 1024.67 1024.42 1023.93 1023.53 1023.24 1022.98 1022.54 1022.13
1024.41 1024.73 1024.73 1024.48 1024.30 1024.34 1024.34 1024.52 1024.74 1025.23 1025.64 1025.98 1026.67 1027.22 1026.86 1025.80 1025.76 1025.86 1026.02 1026.27 1026.41 1026.54 1026.67 1026.51 1026.53 1026.63 1026.58 1026.63 1026.42 1026.40 1026.46 1026.33 1026.44 1026.18 1025.83 1025.48 1025.29 1024.67 1024.39 1023.99 1023.64 1023.27 1022.90
1025.09 1025.03 1025.08 1025.20 1025.05 1025.19 1025.19 1025.32 1025.56 1025.88 1026.24 1026.65 1026.96 1027.60 1027.41 1026.86 1026.80 1026.95 1027.22 1027.57 1027.74 1027.64 1027.64 1027.56 1027.55 1027.81 1028.02 1027.77 1027.52 1027.24 1027.31 1027.44 1027.35 1027.15 1026.74 1026.38 1025.88 1025.36 1025.04 1024.58 1024.31 1023.83 1023.40
1025.71 1025.72 1025.78 1025.79 1026.03 1026.28 1026.16 1026.29 1026.36 1026.59 1027.06 1027.51 1027.62 1027.80 1027.93 1028.01 1027.99 1027.98 1028.29 1028.51 1028.60 1028.73 1028.88 1028.53 1028.56 1028.67 1028.71 1028.72 1028.56 1028.43 1028.33 1028.42 1028.35 1028.36 1027.99 1027.19 1026.51 1026.14 1025.57 1025.04 1024.73 1024.43 1024.19
1026.62 1026.60 1026.65 1026.81 1026.92 1026.91 1027.02 1027.22 1027.65 1027.98 1027.91 1028.17 1028.34 1028.51 1028.60 1028.71 1028.73 1029.00 1029.18 1029.37 1029.40 1029.22 1029.39 1029.44 1029.46 1029.71 1029.55 1029.33 1029.09 1028.98 1029.27 1029.56 1029.34 1028.77 1028.84 1028.07 1027.18 1026.62 1026.11 1025.64 1025.15 1025.01 1024.67
1027.60 1027.60 1027.56 1027.50 1027.67 1027.75 1027.92 1027.99 1028.22 1028.44 1028.65 1028.72 1028.80 1028.98 1029.13 1029.19 1029.25 1029.32 1029.45 1029.71 1030.01 1029.65 1029.74 1029.96 1029.93 1029.73 1029.61 1030.08 1030.17 1030.13 1030.39 1030.38 1030.04 1029.92 1028.76 1028.08 1027.67 1027.41 1026.88 1026.35 1026.12 1025.35 1025.03
1028.46 1028.43 1028.35 1028.36 1028.41 1028.41 1028.47 1028.65 1028.88 1029.04 1029.09 1029.19 1029.32 1029.50 1029.56 1029.48 1029.59 1029.67 1029.82 1030.07 1030.12 1030.06 1030.24 1029.89 1029.98 1030.26 1030.30 1029.72 1029.92 1030.29 1030.56 1030.37 1030.01 1029.93 1029.49 1028.16 1027.75 1027.27 1026.98 1026.55 1026.25 1025.82 1025.13
Thickness
5630 5626 5628 5625 5620 5615 5613 5611 5610 5608 5606 5604 5603 5598 5595 5594 5593 5592 5590 5587 5584 5582 5580 5578 5578 5575 5573 5573 5573 5571 5570 5567 5567 5571 5569 5574 5571 5573 5575 5573 5573 5574 5577
5626 5623 5621 5619 5619 5614 5612 5609 5606 5605 5603 5601 5600 5598 5596 5593 5592 5591 5588 5585 5584 5581 5581 5578 5579 5576 5576 5573 5571 5570 5568 5566 5561 5569 5569 5570 5568 5573 5575 5576 5575 5577 5578
5617 5615 5613 5611 5609 5608 5609 5609 5607 5605 5601 5599 5599 5597 5595 5592 5591 5590 5589 5587 5585 5583 5582 5581 5582 5579 5577 5575 5572 5572 5569 5567 5563 5561 5572 5576 5579 5577 5577 5579 5581 5582 5579
5607 5604 5601 5603 5604 5602 5601 5602 5602 5602 5602 5599 5598 5596 5594 5592 5592 5592 5593 5591 5588 5585 5584 5582 5582 5581 5580 5578 5576 5575 5573 5571 5572 5570 5579 5582 5580 5583 5579 5581 5583 5582 5582
5584 5585 5582 5584 5587 5588 5589 5589 5591 5594 5596 5599 5597 5595 5592 5585 5573 5577 5589 5587 5584 5584 5584 5584 5584 5583 5580 5578 5579 5580 5576 5575 5576 5574 5573 5581 5583 5582 5582 5583 5580 5583 5587
5565 5568 5569 5572 5572 5572 5573 5574 5576 5576 5577 5577 5575 5572 5569 5561 5558 5561 5564 5574 5577 5579 5579 5578 5578 5577 5577 5574 5572 5572 5572 5571 5572 5571 5570 5567 5574 5581 5581 5580 5580 5576 5581
5552 5553 5554 5559 5561 5558 5557 5559 5561 5561 5559 5557 5556 5554 5548 5546 5548 5551 5553 5558 5561 5562 5562 5563 5566 5567 5564 5566 5568 5563 5561 5559 5557 5556 5562 5564 5563 5562 5558 5569 5568 5564 5568
5538 5536 5534 5543 5551 5547 5546 5546 5547 5543 5541 5538 5537 5537 5535 5532 5534 5539 5544 5549 5549 5542 5537 5537 5539 5541 5539 5541 5546 5549 5551 5539 5539 5540 5532 5523 5518 5521 5521 5526 5527 5527 5526
5511 5513 5523 5536 5529 5523 5525 5527 5529 5530 5526 5523 5521 5520 5521 5518 5521 5526 5537 5540 5529 5522 5517 5515 5517 5518 5518 5525 5531 5532 5525 5514 5511 5509 5505 5500 5498 5498 5503 5510 5508 5507 5511
5504 5503 5511 5503 5505 5506 5503 5507 5509 5510 5509 5507 5504 5502 5500 5502 5503 5508 5515 5513 5508 5503 5497 5495 5494 5496 5499 5504 5508 5508 5495 5485 5483 5481 5478 5477 5475 5473 5473 5471 5472 5480 5478
5479 5475 5480 5484 5487 5487 5485 5486 5488 5492 5493 5491 5487 5483 5483 5481 5483 5485 5490 5492 5484 5480 5478 5475 5473 5473 5474 5478 5479 5476 5468 5460 5455 5453 5449 5446 5444 5443 5441 5439 5437 5438 5437
5454 5454 5459 5465 5464 5466 5465 5460 5467 5474 5474 5473 5469 5466 5464 5462 5461 5462 5464 5465 5465 5462 5458 5454 5449 5448 5449 5450 5450 5445 5442 5439 5435 5433 5429 5423 5418 5416 5411 5407 5403 5403 5395
5440 5438 5442 5440 5442 5442 5443 5443 5451 5453 5457 5454 5451 5449 5447 5445 5443 5440 5439 5440 5439 5437 5431 5427 5424 5425 5424 5421 5420 5419 5419 5416 5412 5409 5404 5397 5391 5385 5383 5381 5376 5372 5366
5423 5423 5421 5422 5421 5421 5423 5426 5429 5432 5432 5431 5432 5431 5426 5422 5421 5422 5421 5419 5416 5416 5411 5408 5405 5405 5401 5399 5397 5394 5391 5386 5383 5381 5375 5368 5363 5359 5356 5354 5352 5348 5343
5408 5407 5406 5406 5404 5401 5401 5402 5403 5404 5409 5410 5406 5405 5403 5400 5395 5393 5395 5394 5393 5390 5388 5387 5387 5384 5381 5375 5372 5366 5359 5356 5354 5351 5348 5344 5340 5336 5331 5326 5325 5321 5316
5397 5396 5393 5395 5394 5392 5386 5379 5377 5377 5377 5379 5380 5382 5379 5374 5373 5373 5372 5370 5368 5369 5367 5364 5359 5357 5354 5347 5342 5338 5333 5330 5328 5325 5321 5317 5311 5307 5306 5301 5299 5295 5292
5378 5379 5378 5377 5377 5374 5374 5374 5365 5353 5351 5353 5357 5358 5357 5355 5354 5352 5350 5347 5345 5346 5344 5340 5335 5329 5324 5319 5316 5312 5308 5303 5299 5297 5293 5289 5286 5283 5280 5274 5273 5270 5270
5358 5358 5360 5358 5357 5355 5353 5350 5348 5346 5345 5339 5331 5334 5335 5335 5333 5332 5330 5329 5325 5321 5318 5313 5307 5301 5297 5293 5288 5286 5281 5275 5272 5269 5266 5261 5259 5257 5254 5252 5247 5244 5245
5344 5342 5340 5338 5335 5334 5333 5332 5331 5328 5327 5325 5322 5319 5313 5313 5311 5307 5304 5304 5300 5295 5290 5284 5278 5274 5270 5267 5262 5257 5252 5248 5244 5241 5238 5236 5232 5232 5228 5225 5223 5216 5216
5322 5320 5322 5321 5319 5318 5317 5315 5312 5309 5306 5300 5294 5291 5293 5291 5289 5283 5279 5275 5271 5266 5261 5255 5250 5246 5242 5240 5235 5231 5228 5222 5218 5216 5212 5209 5205 5204 5201 5198 5195 5193 5191
5306 5301 5300 5300 5301 5298 5297 5295 5291 5284 5279 5274 5266 5258 5258 5265 5261 5257 5252 5247 5242 5237 5232 5229 5225 5220 5216 5211 5209 5204 5199 5196 5190 5187 5185 5182 5178 5177 5173 5171 5168 5165 5162
5285 5283 5281 5278 5278 5275 5273 5270 5266 5262 5257 5251 5246 5237 5235 5238 5234 5229 5224 5217 5212 5209 5205 5201 5197 5191 5185 5183 5180 5178 5173 5167 5163 5159 5157 5154 5151 5149 5146 5144 5140 5139 5138
5263 5261 5258 5256 5252 5248 5246 5243 5241 5237 5230 5224 5220 5216 5211 5207 5204 5201 5196 5191 5186 5181 5177 5174 5169 5165 5160 5155 5151 5147 5143 5138 5133 5128 5125 5126 5125 5122 5121 5120 5117 5115 5112
5238 5236 5233 5230 5227 5225 5222 5218 5211 5206 5205 5199 5195 5190 5186 5182 5179 5173 5169 5164 5160 5157 5152 5147 5143 5137 5133 5129 5125 5121 5115 5109 5105 5104 5099 5099 5101 5100 5100 5099 5098 5094 5092
5213 5211 5209 5207 5203 5200 5197 5193 5189 5184 5179 5176 5172 5167 5163 5159 5155 5151 5147 5141 5135 5133 5128 5122 5117 5113 5109 5102 5097 5093 5088 5085 5083 5081 5082 5083 5082 5079 5079 5078 5075 5077 5074
5189 5187 5185 5183 5180 5177 5173 5169 5164 5160 5156 5152 5147 5142 5138 5135 5131 5126 5122 5116 5112 5107 5102 5099 5094 5088 5084 5082 5077 5073 5069 5068 5068 5066 5065 5069 5068 5067 5065 5063 5060 5058 5057